Overview Statistics Trail Chart Weather Telemetry Raw packets
 

This is the latest recevied weather packets stored in our database for station/object SV9TNF-52. If no packets are shown the sender has not sent any weather packets the latest 10 day(s).

<< 30 31 32 33 34 35 36 >>
Time Temp. Humidity Pressure Rain* Wind** Luminosity Snow
1788450858 26.67° C 69% 1017.3 hPa 0 mm 3.58 m/s, 280° - -
1788450557 26.11° C 71% 1017.3 hPa 0 mm 3.58 m/s, 245° - -
1788450257 26.11° C 73% 1017.3 hPa 0 mm 1.79 m/s, 352° - -
1788449957 26.11° C 74% 1017.3 hPa 0 mm 1.79 m/s, 344° - -
1788449658 25.56° C 76% 1017.3 hPa 0 mm 1.79 m/s, 356° - -
1788449357 25.56° C 79% 1017.3 hPa 0 mm 4.02 m/s, 302° - -
1788449057 25.56° C 80% 1017.3 hPa 0 mm 2.68 m/s, 351° - -
1788448757 26.11° C 81% 1017.3 hPa 0 mm 3.58 m/s, 231° - -
1788448458 30.56° C 58% 1017.3 hPa 0 mm 1.79 m/s, 5° - -
1788448157 30.56° C 57% 1017.3 hPa 0 mm 4.02 m/s, 33° - -
1788447857 30.56° C 57% 1017.3 hPa 0 mm 4.92 m/s, 4° - -
1788447557 30.56° C 56% 1017.3 hPa 0 mm 2.68 m/s, 15° - -
1788447256 30.56° C 55% 1017.3 hPa 0 mm 4.47 m/s, 271° - -
1788446956 30° C 56% 1017.3 hPa 0 mm 4.02 m/s, 262° - -
1788446656 29.44° C 56% 1017.3 hPa 0 mm 4.47 m/s, 282° - -
1788446357 30° C 55% 1017.3 hPa 0 mm 5.81 m/s, 345° - -
1788446057 30° C 54% 1017.3 hPa 0 mm 3.13 m/s, 62° - -
1788445756 29.44° C 53% 1017.3 hPa 0 mm 8.05 m/s, 359° - -
1788445456 30° C 52% 1017.3 hPa 0 mm 6.26 m/s, 40° - -
1788445156 30° C 56% 1017.3 hPa 0 mm 1.79 m/s, 348° - -
1788444856 29.44° C 54% 1017.3 hPa 0 mm 6.26 m/s, 66° - -
1788444556 30.56° C 53% 1017.3 hPa 0 mm 4.47 m/s, 226° - -
1788444255 30.56° C 53% 1017.3 hPa 0 mm 4.92 m/s, 273° - -
1788443955 30.56° C 53% 1017.3 hPa 0 mm 6.26 m/s, 19° - -
1788443655 31.11° C 52% 1017.3 hPa 0 mm 4.92 m/s, 306° - -

* Rain latest hour (hover to see other rain measurements)
** Current wind speed in m/s (hover to see current wind gust speed)